Regional Weather Roundup
Issued by NWS Cleveland, OH

Home | Current Version | Previous Version | Graphics & Text | Print | Product List | Glossary On
Versions: 1 2 3 4 5 6 7 8 9 10 11 12 13 14 15 16 17 18 19 20 21 22 23 24 25 26 27 28 29 30 31 32 33 34 35 36 37 38 39 40 41 42 43 44 45 46 47 48 49 50
000
ASUS41 KCLE 250300
RWRCLE
OHIO REGIONAL WEATHER ROUNDUP
NATIONAL WEATHER SERVICE WILMINGTON, OH
1100 PM EDT THU APR 24 2014

NOTE: "FAIR" INDICATES FEW OR NO CLOUDS BELOW 12,000 FEET WITH NO
SIGNIFICANT WEATHER AND/OR OBSTRUCTIONS TO VISIBILITY.

OHZ001>008-015>018-024>027-034-035-043-044-250400-
   NORTHWEST OHIO

CITY           SKY/WX    TMP DP  RH WIND       PRES   REMARKS
DEFIANCE       CLOUDY    45  28  51 E10       29.86F
FINDLAY        MOCLDY    46  33  60 E9        29.85F
TOLEDO EXPRESS MOCLDY    45  23  42 E13       29.86F
TOLEDO METCALF PTCLDY    45  25  45 E9        29.89F
LIMA           MOCLDY    51  28  41 E8        29.83F
$$

OHZ009>014-019>023-028>033-038-089-250400-
   NORTHEAST OHIO

CITY           SKY/WX    TMP DP  RH WIND       PRES   REMARKS
CLE-HOPKINS    CLOUDY    53  24  32 E7        29.94F
CLE-LAKEFRONT  CLOUDY    51  23  33 E6        29.91F
CUY CO. ARPT   MOCLDY    50  19  29 E12       29.94
LORAIN-ELYRIA  CLOUDY    48  29  47 E6        29.91F
ASHTABULA      PTCLDY    43  22  43 E8        29.96F
AKRON-CANTON   CLOUDY    53  21  28 E9        29.94F
WOOSTER        NOT AVBL
MANSFIELD      MOCLDY    50  26  39 E9        29.89F
YOUNGSTOWN     CLOUDY    48  25  40 NE8       29.94F
$$

OHZ042-051>053-060>062-070>072-077>081-250400-
  SOUTHWEST OHIO

CITY           SKY/WX    TMP DP  RH WIND       PRES   REMARKS
CINC-COVINGTON CLOUDY    62  28  27 E12       29.79F
CINC-LUNKEN    CLOUDY    51  40  65 NE3       29.81F
HAMILTON       CLOUDY    57  34  41 E7        29.81F
DAYTON         NOT AVBL
WRIGHT-PAT AFB MOCLDY    56  24  29 E8        29.83F
DAYTON GENERAL MOCLDY    58  25  28 E12       29.81F
WILMINGTON     PTCLDY    54  24  31 E7        29.83F
$$

OHZ036-037-039>041-045>050-054>059-063>069-073>076-082>088-250400-
  CENTRAL AND SOUTHEAST OHIO

CITY           SKY/WX    TMP DP  RH WIND       PRES   REMARKS
COLUMBUS       PTCLDY    56  24  29 E10       29.87F
OSU AIRPORT    MOCLDY    53  24  32 E8        29.87F
BOLTON FIELD   NOT AVBL
RICKENBACK AFB NOT AVBL
NEWARK         PTCLDY    52  25  35 E6        29.88F
MARION         MOCLDY    52  26  36 SE10      29.89S
LANCASTER      PTCLDY    54  23  30 SE3       29.88F
ZANESVILLE     MOCLDY    54  23  30 E6        29.90F
NEW PHILLY     CLOUDY    54  25  32 S3        29.94F
$$



USA.gov is the U.S. government's official web portal to all federal, state and local government web resources and services.